Louisa, VA

7:04 AM EST on February 07, 2016 (GMT -0500)
Louisa County-Freeman

Weather History for KLKU - March, 2014

Change the Weather History Date:

Monday, March 3, 2014

  Actual Average (KCHO) Record (KCHO)
Temperature  
Mean Temperature 24 °F 42 °F  
Max Temperature 39 °F 53 °F 82 °F (1923)
Min Temperature 10 °F 31 °F 9 °F (1925)
Degree Days  
Heating Degree Days 40 23  
Month to date heating degree days 70  
Since 1 July heating degree days 3482  
Cooling Degree Days 0 0  
Month to date cooling degree days 0  
Year to date cooling degree days 0  
Moisture  
Dew Point 19 °F    
Average Humidity 86    
Maximum Humidity 100    
Minimum Humidity 73    
Precipitation  
Precipitation 0.47 in 0.10 in 1.12 in (1960)
Month to date precipitation 0.29  
Year to date precipitation 5.76  
Sea Level Pressure  
Sea Level Pressure 30.15 in    
Wind  
Wind Speed 8 mph (North)    
Max Wind Speed 15 mph    
Max Gust Speed 25 mph    
Visibility 5 miles    
Events Rain , Snow    
T = Trace of Precipitation, MM = Missing Value Source: NWS Daily Summary

Daily Weather History Graph

Daily Weather History Graph

Search for Another Location

Airport or City:

Trip Planner

Search our weather history database for the weather conditions in past years. The results will help you decide how hot, cold, wet, or windy it might be!

Date:

Astronomy

Mar. 03, 2014 Rise Set
Actual Time 6:40 AM EST 6:07 PM EST
Civil Twilight 6:14 AM EST 6:33 PM EST
Nautical Twilight 5:43 AM EST 7:04 PM EST
Astronomical Twilight 5:13 AM EST 7:34 PM EST
Moon 7:50 AM EST (3/3) 9:04 PM EST (3/3)
Length of Visible Light 12h 19m
Length of Day
11h 26m
Waxing Crescent, 8% of the Moon is Illuminated
Mar 3
Waxing Crescent
Mar 8
First Quarter
Mar 16
Full
Mar 23
Last Quarter
Mar 30
New

Hourly Weather History & Observations

Time (EST) Temp. Windchill Dew Point Humidity Pressure Visibility Wind Dir Wind Speed Gust Speed Precip Events Conditions
12:15 AM 39.2 °F 35.0 °F 37.4 °F 93% 29.95 in 2.0 mi North 5.8 mph - N/A   Drizzle
12:35 AM 39.2 °F 35.9 °F 37.4 °F 93% 29.95 in 2.0 mi NNE 4.6 mph - N/A   Drizzle
12:55 AM 39.2 °F 35.0 °F 37.4 °F 93% 29.95 in 4.0 mi NNE 5.8 mph - 0.01 in Rain Light Rain
1:15 AM 39.2 °F 33.6 °F 37.4 °F 93% 29.94 in 5.0 mi NE 8.1 mph - 0.02 in Rain Rain
1:35 AM 39.2 °F 34.2 °F 37.4 °F 93% 29.94 in 5.0 mi NE 6.9 mph - 0.03 in Rain Light Rain
1:55 AM 37.4 °F 32.1 °F 37.4 °F 100% 29.95 in 4.0 mi North 6.9 mph - 0.06 in Rain Rain
2:15 AM 37.4 °F 29.8 °F 35.6 °F 93% 29.92 in 5.0 mi NNE 11.5 mph 20.7 mph 0.02 in Rain Light Rain
2:35 AM 37.4 °F 29.8 °F 35.6 °F 93% 29.93 in 4.0 mi NE 11.5 mph 19.6 mph 0.06 in Rain Rain
2:55 AM 35.6 °F 26.6 °F 35.6 °F 100% 29.94 in 7.0 mi NNE 13.8 mph 19.6 mph 0.07 in Rain Light Rain
3:15 AM 35.6 °F 27.1 °F 33.8 °F 93% 29.96 in 7.0 mi North 12.7 mph 18.4 mph 0.03 in Rain Light Rain
3:35 AM 33.8 °F 25.3 °F 32.0 °F 93% 29.95 in 4.0 mi NNE 11.5 mph - 0.05 in Rain Light Rain
3:55 AM 33.8 °F 27.0 °F 32.0 °F 93% 29.99 in 5.0 mi North 8.1 mph 18.4 mph 0.07 in   Overcast
4:15 AM 33.8 °F 23.9 °F 30.2 °F 87% 29.96 in 4.0 mi NNE 15.0 mph 20.7 mph 0.03 in   Overcast
4:35 AM 33.8 °F 23.9 °F 30.2 °F 87% 29.97 in 5.0 mi NNE 15.0 mph 21.9 mph 0.05 in   Overcast
4:55 AM 32.0 °F 24.2 °F 30.2 °F 93% 30.00 in 4.0 mi NNE 9.2 mph - 0.07 in   Overcast
5:15 AM 32.0 °F 26.4 °F 30.2 °F 93% 30.00 in 4.0 mi NNE 5.8 mph 18.4 mph 0.03 in   Overcast
5:35 AM 30.2 °F 19.8 °F 28.4 °F 93% 30.00 in 5.0 mi NE 13.8 mph 25.3 mph 0.07 in   Overcast
5:55 AM 30.2 °F 20.8 °F 28.4 °F 93% 30.00 in 5.0 mi NNE 11.5 mph 18.4 mph 0.10 in Snow Light Snow
6:15 AM 28.4 °F 19.1 °F 26.6 °F 93% 30.04 in 3.0 mi North 10.4 mph 18.4 mph 0.01 in Snow Light Snow
6:35 AM 28.4 °F 19.1 °F 24.8 °F 86% 30.05 in 5.0 mi North 10.4 mph 19.6 mph 0.02 in Snow Light Snow
6:55 AM 26.6 °F 16.8 °F 24.8 °F 93% 30.06 in 1.0 mi NNE 10.4 mph 23.0 mph 0.03 in Snow Snow
7:15 AM 26.6 °F 18.2 °F 24.8 °F 93% 30.08 in 0.8 mi North 8.1 mph - N/A Snow Snow
7:35 AM 24.8 °F 15.3 °F 23.0 °F 93% 30.08 in 0.5 mi North 9.2 mph 20.7 mph 0.01 in Snow Snow
7:55 AM 24.8 °F 13.4 °F 21.2 °F 86% 30.10 in 0.5 mi North 12.7 mph 21.9 mph 0.02 in Snow Snow
8:15 AM 23.0 °F 13.1 °F 21.2 °F 93% 30.13 in 0.5 mi North 9.2 mph 18.4 mph 0.01 in Snow Snow
8:35 AM 21.2 °F 10.1 °F 19.4 °F 93% 30.13 in 0.5 mi North 10.4 mph 18.4 mph 0.02 in Snow Light Snow
8:55 AM 21.2 °F 8.3 °F 17.6 °F 86% 30.14 in 0.8 mi North 13.8 mph 19.6 mph 0.02 in Snow Light Snow
9:15 AM 19.4 °F 6.0 °F 17.6 °F 93% 30.13 in 0.5 mi North 13.8 mph 21.9 mph N/A Snow Light Snow
9:35 AM 19.4 °F 7.2 °F 17.6 °F 93% 30.15 in 0.8 mi North 11.5 mph 20.7 mph 0.01 in Snow Light Snow
9:55 AM 19.4 °F 7.2 °F 15.8 °F 86% 30.15 in 1.0 mi North 11.5 mph 19.6 mph 0.01 in Snow Light Snow
10:15 AM 19.4 °F 8.6 °F 15.8 °F 86% 30.17 in 2.5 mi North 9.2 mph 20.7 mph 0.01 in Snow Light Snow
10:35 AM 19.4 °F 8.6 °F 15.8 °F 86% 30.16 in 2.5 mi North 9.2 mph 19.6 mph 0.01 in Snow Light Snow
10:55 AM 17.6 °F 6.4 °F 15.8 °F 93% 30.17 in 1.2 mi North 9.2 mph 17.3 mph 0.01 in Snow Light Snow
11:10 AM 19.4 °F 8.6 °F 15.8 °F 86% 30.18 in 1.2 mi North 9.2 mph 18.4 mph N/A Snow Light Snow
11:35 AM 17.6 °F 6.4 °F 15.8 °F 93% 30.20 in 1.2 mi North 9.2 mph 19.6 mph N/A Snow Light Snow
11:55 AM 17.6 °F 4.3 °F 15.8 °F 93% 30.20 in 1.2 mi North 12.7 mph 19.6 mph N/A Snow Light Snow
12:15 PM 17.6 °F 4.3 °F 14.0 °F 86% 30.20 in 1.5 mi North 12.7 mph 18.4 mph N/A Snow Light Snow
12:35 PM 17.6 °F 6.4 °F 14.0 °F 86% 30.20 in 2.0 mi North 9.2 mph 18.4 mph N/A Snow Light Snow
12:55 PM 17.6 °F 5.0 °F 15.8 °F 93% 30.18 in 2.5 mi North 11.5 mph 17.3 mph N/A Snow Light Snow
1:15 PM 17.6 °F 6.4 °F 14.0 °F 86% 30.18 in 4.0 mi North 9.2 mph - N/A Snow Light Snow
1:35 PM 17.6 °F 6.4 °F 15.8 °F 93% 30.17 in 1.8 mi NNW 9.2 mph - N/A Snow Light Snow
1:55 PM 17.6 °F 9.3 °F 14.0 °F 86% 30.17 in 1.2 mi North 5.8 mph - N/A Snow Light Snow
2:15 PM 17.6 °F 6.4 °F 14.0 °F 86% 30.19 in 2.0 mi North 9.2 mph - N/A Snow Light Snow
2:35 PM 17.6 °F 6.4 °F 14.0 °F 86% 30.19 in 1.2 mi North 9.2 mph 17.3 mph N/A Snow Light Snow
2:55 PM 17.6 °F 6.4 °F 14.0 °F 86% 30.21 in 1.5 mi North 9.2 mph - N/A Snow Light Snow
3:15 PM 17.6 °F 7.3 °F 14.0 °F 86% 30.20 in 2.5 mi North 8.1 mph - N/A Snow Light Snow
3:35 PM 17.6 °F 7.3 °F 14.0 °F 86% 30.22 in 2.0 mi North 8.1 mph 18.4 mph N/A Snow Light Snow
3:50 PM 17.6 °F 6.4 °F 14.0 °F 86% 30.22 in 1.2 mi North 9.2 mph 18.4 mph N/A Snow Light Snow
4:15 PM 17.6 °F 5.7 °F 14.0 °F 86% 30.21 in 7.0 mi NNE 10.4 mph - N/A Snow Light Snow
4:35 PM 17.6 °F 7.3 °F 14.0 °F 86% 30.20 in 10.0 mi North 8.1 mph - N/A   Clear
4:55 PM 19.4 °F 10.4 °F 14.0 °F 80% 30.22 in 10.0 mi North 6.9 mph - N/A   Scattered Clouds
5:15 PM 19.4 °F 9.5 °F 12.2 °F 74% 30.23 in 10.0 mi North 8.1 mph - N/A   Scattered Clouds
5:35 PM 19.4 °F 12.8 °F 12.2 °F 74% 30.24 in 10.0 mi North 4.6 mph 9.2 mph N/A   Clear
5:55 PM 19.4 °F 10.4 °F 12.2 °F 74% 30.25 in 10.0 mi North 6.9 mph - N/A   Mostly Cloudy
6:15 PM 19.4 °F 11.5 °F 12.2 °F 74% 30.26 in 10.0 mi North 5.8 mph - N/A   Overcast
6:35 PM 19.4 °F 12.8 °F 12.2 °F 74% 30.27 in 10.0 mi North 4.6 mph - N/A   Scattered Clouds
6:55 PM 17.6 °F 9.3 °F 12.2 °F 79% 30.28 in 10.0 mi North 5.8 mph - N/A   Clear
7:15 PM 17.6 °F 12.3 °F 10.4 °F 73% 30.29 in 10.0 mi North 3.5 mph - N/A   Clear
7:35 PM 17.6 °F 10.7 °F 10.4 °F 73% 30.29 in 10.0 mi NNE 4.6 mph - N/A   Clear
7:55 PM 17.6 °F - 10.4 °F 73% 30.30 in 10.0 mi Calm Calm - N/A   Clear
8:15 PM 15.8 °F 10.2 °F 8.6 °F 73% 30.30 in 10.0 mi NNE 3.5 mph - N/A   Clear
8:35 PM 15.8 °F 10.2 °F 8.6 °F 73% 30.30 in 10.0 mi NNE 3.5 mph - N/A   Clear
8:55 PM 15.8 °F - 8.6 °F 73% 30.31 in 10.0 mi Calm Calm - N/A   Clear
9:15 PM 12.2 °F - 6.8 °F 79% 30.31 in 10.0 mi Calm Calm - N/A   Clear
9:35 PM 14.0 °F - 8.6 °F 79% 30.32 in 10.0 mi Calm Calm - N/A   Clear
9:55 PM 14.0 °F - 8.6 °F 79% 30.32 in 10.0 mi Calm Calm - N/A   Clear
10:15 PM 12.2 °F - 8.6 °F 85% 30.32 in 10.0 mi Calm Calm - N/A   Clear
10:35 PM 12.2 °F 6.1 °F 6.8 °F 79% 30.31 in 10.0 mi North 3.5 mph - N/A   Clear
10:55 PM 10.4 °F - 6.8 °F 85% 30.31 in 10.0 mi Calm Calm - N/A   Clear
11:15 PM 10.4 °F - 6.8 °F 85% 30.31 in 10.0 mi Calm Calm - N/A   Clear
11:35 PM 10.4 °F 4.0 °F 6.8 °F 85% 30.30 in 10.0 mi North 3.5 mph - N/A   Clear
11:55 PM 10.4 °F - 6.8 °F 85% 30.31 in 10.0 mi Calm Calm - N/A   Clear